Location: Gwatt
(46.7204°N, 7.6223°E)
Time: 05:22:52
(UTC+00:00)

Envisat - Visible Passes

Search period start: 25 November 2020 00:00
Search period end: 05 December 2020 00:00
Orbit: 764 x 766 km, 98.1° (Epoch: 24 November)

Date Brightness Start Highest point End Pass type
(mag) Time Alt. Az. Time Alt. Az. Time Alt. Az.
25 Nov 6.1 04:05:22 10° NE 04:08:03 14° E 04:10:44 10° ESE visible
25 Nov 2.9 05:42:35 10° NNE 05:47:42 80° WNW 05:52:46 10° SSW visible
25 Nov 4.2 17:00:11 10° S 17:05:03 46° W 17:09:57 10° NNW visible
26 Nov 4.0 05:05:53 10° NNE 05:10:50 49° E 05:15:45 10° S visible
26 Nov 3.0 16:23:05 10° SSE 16:28:10 85° ENE 16:33:17 10° NNW visible
26 Nov 6.2 18:05:28 10° WSW 18:07:52 13° W 18:10:16 10° WNW visible
27 Nov 5.4 04:29:41 10° NE 04:33:47 24° E 04:37:51 10° SE visible
27 Nov 3.2 06:08:09 10° N 06:13:03 48° WNW 06:17:54 10° SW visible
27 Nov 5.2 17:26:20 10° SSW 17:30:38 28° W 17:34:59 10° NW visible
28 Nov 6.3 03:55:02 10° ENE 03:56:30 11° E 03:57:58 10° ESE visible
28 Nov 3.1 05:31:12 10° NNE 05:36:19 83° ESE 05:41:24 10° SSW visible
28 Nov 3.7 16:48:38 10° S 16:53:37 58° W 16:58:39 10° NNW visible
29 Nov 4.4 04:54:37 10° NNE 04:59:24 40° E 05:04:09 10° SSE visible
29 Nov 3.0 16:11:46 10° SSE 16:16:48 69° ENE 16:21:52 10° N visible
29 Nov 6.0 17:53:07 10° SW 17:56:20 17° W 17:59:34 10° NW visible
30 Nov 5.7 04:18:39 10° NE 04:22:17 19° E 04:25:53 10° SE visible
30 Nov 3.0 05:56:41 10° N 06:01:42 60° WNW 06:06:41 10° SSW visible
30 Nov 4.8 17:14:34 10° SSW 17:19:10 34° W 17:23:48 10° NNW visible
01 Dec 3.4 05:19:50 10° NNE 05:24:55 67° ESE 05:29:58 10° S visible
01 Dec 3.3 16:37:09 10° S 16:42:12 72° WSW 16:47:19 10° NNW visible
02 Dec 4.8 04:43:23 10° NNE 04:47:56 32° E 04:52:27 10° SSE visible
02 Dec 3.5 06:22:21 10° N 06:26:59 36° WNW 06:31:36 10° SW visible
02 Dec 5.6 17:41:02 10° SW 17:44:49 21° W 17:48:37 10° NW visible
03 Dec 5.9 04:07:45 10° NE 04:10:45 15° E 04:13:43 10° SE visible
03 Dec 2.9 05:45:15 10° N 05:50:20 74° WNW 05:55:24 10° SSW visible
03 Dec 4.3 17:02:54 10° S 17:07:43 43° W 17:12:33 10° NNW visible
04 Dec 3.8 05:08:30 10° NNE 05:13:30 53° E 05:18:27 10° S visible
04 Dec 3.1 16:25:44 10° SSE 16:30:48 89° WSW 16:35:56 10° NNW visible
04 Dec 6.2 18:08:35 10° WSW 18:10:34 12° W 18:12:34 10° WNW visible
